Location: Nordegg
(52.4712°N, 116.0743°W)
Time: 03:50:48
(UTC+00:00)

X-37B - Visible Passes

Search period start: 07 December 2021 00:00
Search period end: 17 December 2021 00:00
Orbit: 330 x 341 km, 45.0° (Epoch: 20 November)

Date Brightness Start Highest point End Pass type
(mag) Time Alt. Az. Time Alt. Az. Time Alt. Az.
10 Dec 2.8 01:31:48 10° SSW 01:33:16 13° SSE 01:33:25 13° SSE visible
11 Dec 2.7 01:51:23 10° SW 01:52:57 17° S 01:52:57 17° S visible
12 Dec 3.0 00:37:15 10° SSW 00:38:41 13° SSE 00:40:08 10° SE visible
12 Dec 3.1 02:11:24 10° SW 02:12:29 16° SSW 02:12:29 16° SSW visible
13 Dec 2.7 00:56:49 10° SW 00:58:49 17° S 01:00:48 10° SE visible
13 Dec 3.7 02:31:43 10° SW 02:32:02 12° SW 02:32:02 12° SW visible
14 Dec 2.6 01:16:50 10° SW 01:18:58 19° S 01:20:24 14° SE visible
15 Dec 2.7 01:37:08 10° SW 01:39:07 17° S 01:40:02 15° SSE visible
16 Dec 2.8 00:22:15 10° SW 00:24:24 19° S 00:26:32 10° SE visible
16 Dec 3.2 01:57:51 10° SW 01:59:13 13° SSW 01:59:46 12° S visible
